Terminal Aerodrome Forecast
Issued by NWS

Home | Current Version | Previous Version | Text Only | Print | Product List | Glossary On
Versions: 1 2 3 4 5 6 7 8 9 10 11 12 13 14 15 16 17 18 19 20 21 22 23 24 25 26
000
FTUS45 KLKN 251720
TAFTPH
TAF
KTPH 251720Z 2518/2618 34012G22KT P6SM BKN050
     FM252000 33025G35KT P6SM -SHRA OVC040
      TEMPO 2522/2602 35030G44KT SCT050 OVC100
     FM260200 35020G30KT P6SM SCT100 BKN200=

USA.gov is the U.S. government's official web portal to all federal, state and local government web resources and services.